Location: Newark
(29.4733°N, 82.6067°W)
Time: 11:29:50
(UTC+00:00)

X-37B - Visible Passes

Search period start: 17 September 2021 00:00
Search period end: 27 September 2021 00:00
Orbit: 381 x 393 km, 45.0° (Epoch: 29 August)

Date Brightness Start Highest point End Pass type
(mag) Time Alt. Az. Time Alt. Az. Time Alt. Az.
18 Sep 1.7 10:08:50 19° SSW 10:10:38 40° SE 10:13:37 10° ENE visible
19 Sep 3.6 09:13:37 14° ESE 09:13:37 14° ESE 09:14:35 10° E visible
19 Sep 1.5 10:45:56 10° W 10:48:50 35° NNW 10:51:47 10° NE visible
20 Sep 0.6 09:50:37 74° NNE 09:50:37 74° NNE 09:53:35 10° NE visible
21 Sep 2.4 10:27:29 15° WNW 10:28:49 19° NNW 10:31:11 10° NNE visible
22 Sep 2.9 09:31:58 20° NNE 09:31:58 20° NNE 09:33:14 10° NE visible
23 Sep 3.1 10:08:40 12° NNW 10:08:55 12° NNW 10:10:10 10° N visible
